Sunday 25th June 2017 - KPAO 260247Z 32015KT 10SM FEW020 19/14 A2997

Aircraft Rentals Bay Area

Pipers

Cessna 152

Cessna Skycatcher 162

Cessna Skycatcher 162

Cessna Skyhawk 172N

Cessna Skyhawk 172SP

Cessna Skyhawk 172SP G-1000

Cessna 182P

Cessna Skylane 182T

Cessna Skylane Turbo T182T

Cessna Skywagon Turbo T206H

Pipers

Diamond

Mooney

Cirrus

Beechcraft Duchess

Tail Wheel - Citabria

Tail Wheel - Stearman/Great Lakes

Tail Wheel - Aerobatic

War Birds

Advantage Aviation